Vorticity
5 6 6 6 6 6 7 6 6 5 4 3 4 5 4 8 4 1 1 2 2 6 3 6 4 8 9 7 9 5 8 10 9 15 11 6 8 17 14 19 9 18 12 8 8 6 11
5 6 5 6 6 7 7 6 6 4 3 3 3 4 5 6 6 7 4 0 0 3 6 0 2 5 8 10 12 8 7 12 13 13 3 6 2 4 9 26 13 7 17 24 21 20 11
4 5 5 5 5 6 7 7 5 6 4 3 3 3 4 4 5 7 8 8 4 -2 3 7 -0 -1 1 5 11 13 7 11 12 6 11 6 9 6 10 25 19 14 -22 42 34 36 1
4 4 4 5 5 5 6 6 7 5 4 3 3 2 3 3 4 4 5 6 12 7 -3 -1 13 9 2 4 3 12 14 11 10 17 4 2 3 14 7 15 4 -8 -4 8 43 18 25
4 4 4 5 5 5 4 6 5 6 6 5 4 3 3 3 3 3 3 4 6 9 14 5 7 -8 -1 4 6 4 10 15 11 12 8 8 5 18 4 5 5 -10 13 10 9 15 21
5 4 5 5 5 5 5 5 4 5 7 7 6 6 4 4 4 4 4 3 4 3 15 1 1 19 6 4 6 6 4 4 9 12 16 5 16 11 2 1 2 6 6 5 5 8 13
7 7 6 5 5 5 6 5 5 4 4 5 6 6 7 7 6 6 6 4 3 3 12 2 3 3 5 14 7 8 8 5 5 5 11 18 7 7 3 10 9 -2 -4 12 15 -6 13
7 7 8 7 6 5 5 5 6 6 5 4 4 5 6 8 8 8 7 6 4 3 7 14 -3 1 8 5 0 7 5 3 10 9 -5 15 2 13 13 16 16 10 6 6 32 12 18
8 7 7 7 8 7 6 6 6 5 6 7 6 5 4 5 7 8 7 7 6 4 14 14 -4 1 1 9 0 2 15 7 7 11 14 -6 3 5 19 15 5 18 2 8 9 22 -3
7 8 8 8 8 8 9 8 8 8 6 7 7 7 6 4 5 6 9 8 6 6 35 4 1 -6 2 16 -5 2 13 7 3 5 21 5 5 2 1 12 13 16 16 23 13 7 8
5 6 6 7 7 10 10 10 9 10 8 8 8 8 7 6 6 5 7 8 8 16 13 7 1 -7 8 19 6 5 5 11 4 -1 18 9 -0 8 -1 19 9 9 20 13 20 5 15
3 4 4 -5 0 4 4 8 10 9 9 10 10 9 8 8 6 6 7 8 8 25 15 -1 -9 -2 9 9 10 1 3 13 10 9 19 24 7 10 -6 28 -10 9 34 3 1 12 -0
1 -2 3 10 10 -4 8 4 0 5 8 8 9 10 10 9 11 5 8 9 33 16 5 7 -2 -1 20 5 14 -2 -0 13 8 14 8 30 10 15 -12 14 1 3 46 -6 2 4 -4
0 8 16 1 6 -8 6 12 3 22 6 9 0 9 9 5 7 10 10 12 22 5 -8 18 -3 6 21 1 8 6 0 13 8 4 32 2 2 9 -5 19 13 4 7 30 9 5 -7
9 -4 20 3 1 1 7 11 6 10 20 9 25 22 3 12 12 10 14 16 3 10 7 2 4 24 8 -3 12 14 9 16 5 4 19 11 -5 16 -7 27 6 8 0 4 18 13 13
30 17 8 17 0 3 3 -6 -5 14 1 14 11 9 13 11 11 10 12 7 5 9 4 6 16 11 -5 4 16 9 22 10 2 8 0 -5 12 -7 2 14 -4 9 16 7 13 7 12
-9 16 -1 -15 14 6 0 19 22 10 6 3 8 11 9 5 8 12 10 10 6 7 13 6 2 2 13 20 0 12 9 1 16 -11 5 17 8 -22 11 -3 18 15 13 9 15 13 10
8 8 -19 0 2 25 13 3 11 14 9 2 5 11 21 10 4 6 5 9 7 5 9 12 21 25 -1 3 17 20 5 -1 4 -0 19 12 15 -7 37 28 -1 20 10 -6 16 -6 -4
1 10 9 -21 3 25 3 9 6 4 4 1 18 14 14 14 10 10 9 6 6 15 26 5 -5 16 11 8 20 -1 8 4 6 3 -1 2 -9 20 6 5 -12 -11 -11 2 11 19 12
-1 -3 -10 17 -35 26 -2 12 0 6 10 17 17 17 7 0 10 15 21 23 15 -3 0 15 5 8 8 6 14 4 -5 12 1 8 5 -3 11 1 -31 -22 -6 2 6 5 11 20 -5
12 10 -8 10 11 20 -0 8 15 6 6 11 3 10 6 -5 -5 -8 0 3 10 10 9 3 6 1 12 12 3 21 -8 -8 10 6 12 19 -0 15 9 8 7 11 8 13 15 23 23
12 -18 22 -1 19 2 -5 15 9 6 13 16 9 13 11 8 8 7 10 10 7 11 5 4 3 4 7 5 5 -2 10 12 10 4 9 -2 8 -2 -2 24 16 8 20 54 30 26 23
19 7 25 -30 26 2 7 14 10 6 18 18 15 16 10 4 9 9 6 10 10 4 7 -11 8 14 -0 4 3 10 10 5 1 2 8 5 7 4 20 26 -14 56 -2 -10 8 8 12
26 3 4 25 7 -6 9 7 4 13 13 15 10 12 10 8 9 10 9 6 -4 -2 -5 19 8 5 3 17 14 7 3 10 23 31 30 23 18 24 7 23 23 15 -13 19 25 15 -3
25 6 9 15 -11 3 20 -4 14 11 8 10 11 9 7 8 12 3 -3 6 19 11 6 5 4 8 8 7 9 22 21 50 -7 38 29 16 20 -2 -7 23 -7 -3 39 -5 -6 10 -3
30 41 -1 -40 32 -2 17 -4 4 8 8 11 14 14 11 2 -2 13 5 7 11 10 8 14 12 8 -4 10 17 22 10 -1 20 17 7 10 18 12 19 4 1 17 -4 -5 0 13 6
15 17 10 8 1 21 -3 13 6 10 11 13 11 13 11 5 8 7 18 13 3 1 5 3 0 7 22 25 24 20 11 5 18 8 5 8 21 20 14 -6 21 8 9 9 32 3 1
17 3 14 12 -10 9 6 8 10 10 14 14 13 12 3 -1 2 8 5 9 5 1 -3 18 26 25 22 19 13 12 8 3 9 -0 -6 7 7 6 16 17 21 5 -3 -15 3 -13 -4
15 13 6 -7 0 16 11 6 11 12 12 13 11 3 3 15 -7 2 12 -13 -1 18 -23 10 10 19 -9 -4 -8 2 -13 -20 -19 -18 -23 25 26 -1 6 -10 -15 -0 -2 4 -1 -2 10
Height
3184 3183 3183 3182 3181 3181 3180 3179 3179 3177 3176 3175 3173 3172 3170 3167 3164 3162 3159 3156 3154 3151 3148 3145 3141 3137 3133 3129 3124 3119 3115 3110 3107 3103 3099 3096 3092 3089 3086 3083 3081 3078 3075 3073 3071 3070 3070
3186 3186 3184 3184 3183 3182 3181 3180 3179 3178 3177 3176 3174 3173 3170 3168 3166 3163 3161 3158 3155 3152 3149 3146 3142 3138 3134 3131 3124 3119 3115 3112 3107 3103 3100 3097 3093 3090 3086 3082 3079 3076 3072 3069 3067 3066 3066
3185 3185 3185 3184 3183 3183 3182 3181 3180 3179 3178 3176 3175 3173 3171 3168 3166 3164 3161 3158 3156 3153 3150 3146 3143 3139 3135 3133 3126 3121 3116 3112 3108 3104 3101 3097 3094 3091 3087 3082 3078 3075 3071 3066 3063 3063 3065
3185 3184 3183 3182 3183 3182 3181 3180 3180 3179 3178 3176 3174 3173 3171 3169 3166 3164 3161 3158 3155 3153 3151 3147 3143 3140 3136 3133 3128 3122 3117 3113 3108 3104 3101 3097 3094 3090 3086 3083 3079 3075 3071 3066 3063 3063 3064
3184 3182 3182 3182 3182 3181 3181 3180 3179 3178 3177 3176 3174 3172 3170 3168 3166 3164 3161 3158 3155 3152 3150 3147 3144 3140 3137 3133 3129 3124 3119 3114 3110 3105 3101 3097 3094 3090 3088 3083 3079 3076 3072 3069 3066 3065 3063
3183 3183 3183 3182 3182 3180 3179 3177 3177 3176 3176 3174 3173 3171 3169 3167 3165 3162 3161 3158 3155 3151 3149 3147 3143 3142 3137 3134 3129 3124 3120 3115 3111 3107 3102 3098 3093 3091 3088 3084 3081 3077 3074 3072 3069 3066 3064
3181 3181 3181 3181 3179 3178 3177 3176 3175 3174 3173 3172 3171 3170 3168 3166 3164 3162 3160 3157 3156 3152 3147 3146 3143 3139 3136 3132 3129 3124 3120 3116 3112 3108 3102 3098 3096 3090 3088 3085 3082 3078 3076 3072 3068 3067 3064
3178 3179 3179 3178 3177 3176 3174 3174 3173 3172 3171 3170 3169 3167 3166 3164 3162 3160 3157 3154 3152 3151 3147 3143 3142 3138 3135 3132 3128 3124 3121 3117 3112 3108 3104 3101 3096 3092 3088 3085 3081 3078 3075 3071 3066 3065 3063
3176 3175 3176 3175 3174 3174 3173 3172 3170 3169 3167 3167 3165 3164 3162 3161 3160 3158 3155 3153 3150 3147 3145 3142 3140 3137 3134 3132 3128 3124 3121 3117 3113 3108 3104 3101 3098 3094 3089 3084 3080 3076 3073 3070 3068 3063 3062
3175 3174 3173 3172 3172 3172 3171 3170 3168 3167 3165 3163 3162 3161 3160 3159 3159 3155 3153 3151 3148 3145 3141 3141 3139 3137 3134 3130 3128 3124 3120 3117 3113 3108 3104 3101 3098 3094 3090 3084 3079 3074 3072 3069 3067 3064 3063
3171 3172 3172 3171 3170 3169 3168 3167 3166 3165 3163 3160 3160 3159 3158 3155 3154 3152 3152 3148 3146 3143 3140 3140 3138 3136 3132 3131 3129 3124 3120 3116 3113 3110 3107 3104 3099 3094 3091 3086 3082 3077 3071 3069 3067 3065 3065
3168 3168 3168 3168 3167 3166 3165 3164 3163 3161 3159 3157 3156 3155 3154 3153 3151 3149 3148 3145 3145 3144 3136 3136 3135 3134 3131 3128 3126 3123 3120 3117 3113 3110 3107 3103 3100 3096 3092 3088 3084 3079 3073 3071 3069 3067 3067
3164 3164 3165 3163 3163 3163 3162 3161 3159 3158 3156 3154 3152 3151 3150 3148 3148 3145 3145 3143 3143 3139 3137 3135 3133 3131 3129 3126 3124 3121 3119 3116 3114 3110 3106 3103 3100 3097 3094 3088 3086 3082 3075 3074 3076 3074 3074
3159 3159 3159 3158 3158 3159 3157 3156 3154 3152 3151 3149 3148 3146 3145 3144 3143 3142 3142 3142 3139 3135 3134 3132 3130 3128 3126 3124 3122 3119 3117 3115 3113 3111 3107 3104 3099 3098 3095 3091 3089 3085 3084 3083 3084 3083 3077
3152 3153 3153 3153 3154 3153 3151 3151 3150 3147 3145 3144 3141 3140 3141 3139 3139 3139 3139 3138 3135 3133 3132 3129 3127 3124 3123 3122 3121 3118 3116 3114 3113 3112 3110 3105 3100 3098 3096 3092 3091 3088 3086 3086 3084 3082 3081
3145 3145 3146 3146 3147 3147 3146 3146 3145 3143 3142 3140 3139 3136 3136 3135 3135 3135 3135 3133 3131 3130 3129 3127 3125 3125 3122 3121 3120 3117 3114 3113 3111 3111 3109 3107 3101 3098 3096 3092 3091 3089 3089 3087 3085 3086 3084
3140 3139 3140 3139 3140 3142 3141 3140 3138 3138 3137 3136 3135 3134 3133 3131 3131 3130 3130 3130 3128 3127 3126 3126 3122 3121 3120 3119 3117 3116 3114 3112 3109 3109 3107 3106 3103 3100 3096 3094 3090 3090 3089 3089 3089 3088 3088
3133 3133 3133 3132 3133 3135 3135 3134 3133 3133 3133 3132 3130 3130 3128 3128 3129 3126 3125 3125 3126 3124 3123 3121 3120 3118 3118 3116 3115 3114 3113 3111 3110 3108 3105 3104 3102 3096 3094 3092 3090 3089 3090 3091 3091 3089 3088
3126 3125 3127 3125 3128 3129 3129 3129 3127 3128 3128 3127 3125 3124 3124 3124 3124 3123 3122 3121 3121 3121 3120 3119 3119 3117 3116 3114 3113 3111 3111 3110 3107 3106 3104 3103 3100 3096 3091 3092 3090 3089 3087 3087 3088 3086 3083
3118 3117 3118 3119 3121 3124 3124 3123 3122 3122 3122 3122 3121 3119 3120 3120 3120 3120 3120 3118 3117 3118 3118 3117 3116 3115 3113 3112 3110 3108 3107 3106 3105 3103 3101 3100 3095 3093 3092 3089 3087 3083 3082 3082 3083 3080 3076
3108 3110 3109 3113 3115 3116 3117 3117 3115 3116 3117 3117 3115 3114 3114 3115 3116 3115 3116 3116 3114 3113 3113 3112 3112 3111 3110 3108 3107 3105 3103 3102 3101 3099 3097 3094 3091 3088 3086 3084 3083 3079 3075 3075 3072 3072 3073
3097 3100 3104 3105 3108 3108 3110 3110 3110 3111 3111 3109 3109 3110 3109 3110 3111 3112 3111 3111 3111 3110 3110 3109 3109 3109 3107 3105 3104 3100 3098 3096 3095 3094 3091 3088 3085 3082 3077 3078 3077 3070 3068 3067 3065 3064 3064
3087 3091 3094 3097 3100 3101 3103 3104 3105 3104 3105 3104 3104 3104 3104 3105 3106 3109 3109 3107 3106 3105 3104 3104 3104 3102 3102 3099 3097 3096 3093 3092 3090 3086 3085 3083 3081 3080 3073 3073 3072 3068 3065 3065 3063 3061 3061
3077 3082 3088 3089 3091 3093 3096 3098 3100 3099 3098 3099 3100 3100 3100 3099 3101 3103 3103 3103 3101 3100 3100 3100 3098 3097 3096 3093 3091 3089 3087 3084 3081 3079 3077 3075 3076 3077 3072 3073 3073 3065 3064 3062 3059 3057 3056
3069 3075 3079 3080 3083 3086 3089 3091 3092 3092 3093 3093 3095 3096 3096 3095 3096 3099 3099 3098 3097 3095 3094 3094 3093 3092 3090 3088 3085 3080 3078 3075 3073 3071 3070 3071 3071 3070 3070 3066 3062 3062 3060 3060 3059 3055 3051
3061 3065 3071 3073 3078 3081 3083 3085 3085 3085 3086 3089 3090 3091 3091 3093 3092 3092 3093 3092 3090 3089 3089 3088 3087 3086 3085 3082 3081 3077 3077 3074 3071 3068 3067 3066 3065 3067 3065 3063 3059 3055 3056 3055 3053 3046 3045
3056 3060 3063 3068 3072 3074 3075 3078 3080 3080 3080 3081 3083 3085 3085 3087 3087 3087 3086 3087 3084 3083 3082 3081 3081 3079 3077 3075 3074 3074 3073 3073 3071 3068 3066 3065 3063 3061 3060 3059 3052 3049 3049 3049 3049 3045 3039
3050 3054 3058 3061 3064 3068 3070 3072 3074 3073 3074 3076 3078 3078 3080 3081 3082 3081 3081 3080 3079 3078 3077 3075 3074 3072 3071 3070 3071 3069 3066 3064 3060 3060 3059 3058 3060 3058 3056 3052 3047 3045 3044 3046 3043 3039 3033
3043 3047 3051 3055 3059 3061 3064 3065 3066 3067 3068 3070 3072 3073 3074 3077 3077 3076 3075 3075 3074 3073 3072 3069 3069 3065 3066 3066 3065 3063 3062 3060 3057 3054 3055 3055 3054 3053 3052 3046 3040 3036 3038 3035 3032 3028 3026